DELTA 1 DEB, 10715

Orbit data source: Space-Track

DELTA 1 DEB, 10715 is space debris in LEO originally from a launch on Thu, 29 Jul 1976 UTC launched from the Air Force Western Test Range (AFWTR). Debris objects in space refer to the collection of defunct objects orbiting the Earth. Examples of debris include non-operational satellites, rocket bodies, and fragments generated from explosions, collisions, or faulty payload assembly.

Loading next visibility...
Identifier
10715, 1976-077AL
Orbit
LEO
Country
Flag of USUS
Related business
Manufacturer
Unknown
Mission
Spacecraft
Bus & Motor
Unknown
Mass
Unknown
Launch date (UTC)
1976-07-29 (50 years ago)
Launch vehicle
Unknown
Launch site
Air Force Western Test Range (AFWTR)
Object type
Payload
Rocket body
Debris
Shape & HBR
Unknown shape, 0.1 m
Radar Cross Section
Medium (>0.1 m² and <1 m²)

Expand to show TLE details & history
Last TLE update: 1 day ago

TLE from 1 day ago
0 DELTA 1 DEB
1 10715U 76077AL  26255.27751403 -.00000021  00000-0  22718-3 0  9997
2 10715 102.5615   6.9758 0435244  94.5738 296.9749 11.63952565132329
Epoch: 2026-09-12T06:39Z
TLE epoch observation values (Epoch: 2026-09-12T06:39:37.212Z)
Latitude
26.33406°
Longitude
-90.51959°
Altitude
1,699.526 km
Speed
7.092 km/s
True Right ascension
00h 02m 41s
True Declination
26° 12' 49"
Sunlit
Object was in full shadow at epoch
Visualization orbit readout
Latitude
Unknown
Longitude
Unknown
Altitude
Unknown
Speed
Unknown
Apparent Right ascension
Unknown
Apparent Declination
Unknown
Sunlit
N/A
Visualization observer readout
Local Sidereal Time
02:30:00
Azimuth
Unknown
Elevation
Unknown
Doppler factor
Unknown
Orbital elements
Apogee altitude
2,201.973 km
Perigee altitude
1,486.237 km
Semi-major axis
8,222.242 km
Eccentricity
0.04352
Inclination
102.5615°
RAAN
6.9758°
Arg. of periapsis
94.5738°
True anomaly
292.42245°
Mean anomaly
296.9749°
Eccentric anomaly
294.70947°
Mean motion
2.9111 °/min
Orbital period
123.66 mins
BSTAR
0.00022718
Loading maneuver chart data...
Computing Atmospheric mass density...
Loading historical data...
Loading historical data...
Loading historical data...
Loading historical data...
Loading historical data...
Loading historical data...
Loading historical data...

Documentation

Showing up to 5 results
|